Home   Weather   Zabrze   Past weeks

Flag for Poland Past Weather in Zabrze, Poland — Yesterday and Last 2 Weeks

Now
72 °F

Clear.


Feels Like: 75 °F
Forecast: 59 / 73 °F
Wind: 13 mph from Southeast

Location: Katowice Airport

Current Time: Jun 29, 2017 at 4:13:15 am

Latest Report: Jun 29, 2017 at 3:30 am


Visibility: 10 mi

Pressure: 29.50 "Hg

Humidity: 65%

Dew Point: 59 °F

Location of ZabrzeLocation

Past Weather in Zabrze — Graph

°F

Zabrze Temperature Yesterday

Maximum temperature yesterday: 91 °F (at 4:00 pm)
Minimum temperature yesterday: 63 °F (at 2:00 am)
Average temperature yesterday: 78 °F

High & Low Weather Summary for the Past Weeks

 TemperatureHumidityPressure
High91 °F (Jun 28, 4:00 pm)100% (Jun 15, 2:00 am)30.24 "Hg (Jun 15, 2:00 am)
Low39 °F (Jun 15, 5:00 am)26% (Jun 22, 1:00 pm)29.50 "Hg (Jun 29, 1:00 am)
Average66 °F67%29.96 "Hg
* Reported Jun 14 3:00 am — Jun 29 3:00 am, Zabrze. Weather by CustomWeather, © 2017

Note: Actual official high and low records may vary slightly from our data, if they occured in-between our weather recording intervals... More about our weather records

Advertising

Zabrze Weather History for the Previous 24 Hours

Scroll right to see more
 ConditionsComfort  
Time TempWeatherWind HumidityBarometerVisibility
3:00 am
Thu, Jun 29
72 °FClear.14 mph65%29.50 "Hg10 mi
2:30 am72 °FClear.10 mph61%29.50 "Hg10 mi
2:00 am73 °FClear.12 mph53%29.50 "Hg10 mi
1:30 am73 °FClear.10 mph53%29.50 "Hg10 mi
1:00 am75 °FClear.14 mph50%29.50 "Hg10 mi
12:30 am77 °FClear.16 mph47%29.53 "Hg10 mi
12:00 am77 °FClear.14 mph47%29.53 "Hg10 mi
11:30 pm
Wed, Jun 28
79 °FClear.14 mph45%29.53 "Hg10 mi
11:00 pm77 °FClear.10 mph54%29.53 "Hg10 mi
10:30 pm79 °FClear.20 mph48%29.53 "Hg10 mi
10:00 pm79 °FClear.9 mph51%29.53 "Hg10 mi
9:00 pm81 °FClear.12 mph45%29.53 "Hg10 mi
8:30 pm82 °FSunny.9 mph42%29.53 "Hg10 mi
8:00 pm84 °FSunny.13 mph40%29.53 "Hg10 mi
7:30 pm84 °FSunny.13 mph40%29.53 "Hg10 mi
7:00 pm88 °FSunny.15 mph35%29.53 "Hg10 mi
6:30 pm88 °FPassing clouds.12 mph35%29.53 "HgN/A
6:00 pm88 °FScattered clouds.20 mph33%29.53 "HgN/A
5:30 pm90 °FSunny.20 mph31%29.53 "Hg10 mi
5:00 pm90 °FScattered clouds.16 mph31%29.53 "HgN/A
4:30 pm91 °FScattered clouds.18 mph30%29.53 "HgN/A
4:00 pm91 °FSunny.20 mph30%29.56 "Hg10 mi
3:30 pm90 °FSunny.18 mph31%29.56 "Hg10 mi
3:00 pm88 °FPassing clouds.14 mph35%29.59 "HgN/A
2:30 pm90 °FSunny.20 mph31%29.59 "Hg10 mi
2:00 pm90 °FSunny.17 mph31%29.59 "Hg10 mi
1:30 pm88 °FPassing clouds.14 mph33%29.62 "HgN/A
1:00 pm86 °FPassing clouds.13 mph40%29.62 "HgN/A
12:30 pm88 °FPassing clouds.17 mph38%29.62 "HgN/A
12:00 pm86 °FPassing clouds.16 mph38%29.65 "HgN/A
11:30 am86 °FPassing clouds.13 mph40%29.65 "HgN/A
11:00 am84 °FPassing clouds.13 mph43%29.65 "HgN/A
10:30 am84 °FPassing clouds.13 mph43%29.65 "HgN/A
10:00 am82 °FSunny.15 mph45%29.65 "Hg10 mi
9:30 am81 °FSunny.14 mph48%29.65 "Hg10 mi
9:00 am79 °FSunny.12 mph54%29.68 "Hg10 mi
8:30 am77 °FSunny.10 mph57%29.68 "Hg10 mi
8:00 am73 °FSunny.12 mph69%29.68 "Hg10 mi
7:30 am72 °FSunny.9 mph69%29.71 "Hg10 mi
7:00 am68 °FPassing clouds.6 mph78%29.71 "HgN/A
6:30 am64 °FSunny.6 mph88%29.71 "Hg10 mi
6:00 am64 °FSunny.7 mph88%29.71 "Hg10 mi
5:30 am64 °FSunny.6 mph88%29.71 "Hg10 mi
5:00 am64 °FSunny.6 mph88%29.71 "Hg10 mi
4:30 am64 °FClear.7 mph88%29.71 "Hg10 mi
4:00 am64 °FClear.8 mph83%29.71 "Hg10 mi
Weather by CustomWeather, © 2017

See weather overviewHow to use our weather pages